User: anonymous   Login
Location: Unspecified
(0.0000°N, 0.0000°E)
Time: 03:32:26
(UTC+00:00)
Language:

Aussat K3 - Orbit

View from above orbital plane
View from above orbital plane
View from above satellite
View from above satellite

Ground track
Ground track

The orbit data is extracted from the following two-line orbital elements,

1 18350U 87078A   15180.28687668 -.00000235  00000-0  00000+0 0  9993
2 18350 014.1134 025.7358 0003547 253.2752 088.5973 00.98908777100891
Epoch (UTC): 29 June 2015 06:53:06
Eccentricity: 0.0003547
inclination: 14.1134°
perigee height: 36157 km
apogee height: 36188 km
right ascension of ascending node: 25.7358°
argument of perigee: 253.2752°
revolutions per day: 0.98908777
mean anomaly at epoch: 88.5973°
orbit number at epoch: 10089

The dashed part of the orbit path shows where the satellite is in the earth's shadow,  

DLR